Weather reports worldwide

Advertisment
Buenos Aires, Argentina (87585): temperature & dewpoint: 04.12.2018 07:00:00 - 10.12.2018 07:00:00 (ART)Buenos Aires, Argentina (87585): wind speed: 04.12.2018 07:00:00 - 10.12.2018 07:00:00 (ART)Buenos Aires, Argentina (87585): wind direction: 04.12.2018 07:00:00 - 10.12.2018 07:00:00 (ART)Buenos Aires, Argentina (87585): reduced air pressure: 04.12.2018 07:00:00 - 10.12.2018 07:00:00 (ART)Buenos Aires, Argentina (87585): visibility: 04.12.2018 07:00:00 - 10.12.2018 07:00:00 (ART)
Date & Time tt [°C] td [°C] ff [km/h] ff [kn] dd ppp [hPa] vv [km]
10.12.2018 07:00:00 - - - - - - -
10.12.2018 06:00:00 16,4 15,6 4 2 W 1014,3 10
10.12.2018 05:00:00 - - - - - - -
10.12.2018 04:00:00 - - - - - - -
10.12.2018 03:00:00 17,0 15,7 0 0 N 1013,7 10
10.12.2018 02:00:00 - - - - - - -
10.12.2018 01:00:00 - - - - - - -
10.12.2018 00:00:00 18,4 17,4 5 3 S 1014,4 10
09.12.2018 23:00:00 - - - - - - -
09.12.2018 22:00:00 - - - - - - -
09.12.2018 21:00:00 19,4 17,8 2 1 NE 1011,9 10
09.12.2018 20:00:00 - - - - - - -
09.12.2018 19:00:00 - - - - - - -
09.12.2018 18:00:00 21,2 15,6 18 10 SE 1011,8 10
09.12.2018 17:00:00 - - - - - - -
09.12.2018 16:00:00 - - - - - - -
09.12.2018 15:00:00 28,8 11,3 18 10 W 1010,9 10
09.12.2018 14:00:00 - - - - - - -
09.12.2018 13:00:00 - - - - - - -
09.12.2018 12:00:00 28,2 10,8 11 6 W 1012,3 10
09.12.2018 11:00:00 - - - - - - -
09.12.2018 10:00:00 - - - - - - -
09.12.2018 09:00:00 23,4 11,9 15 8 NW 1013,5 10
09.12.2018 08:00:00 - - - - - - -
09.12.2018 07:00:00 - - - - - - -
09.12.2018 06:00:00 20,0 10,8 11 6 NW 1012,3 10
09.12.2018 05:00:00 - - - - - - -
09.12.2018 04:00:00 - - - - - - -
09.12.2018 03:00:00 21,8 9,3 13 7 NW 1012,4 10
09.12.2018 02:00:00 - - - - - - -
09.12.2018 01:00:00 - - - - - - -
09.12.2018 00:00:00 22,8 12,6 4 2 NW 1011,7 10
08.12.2018 23:00:00 - - - - - - -
08.12.2018 22:00:00 - - - - - - -
08.12.2018 21:00:00 22,5 13,1 2 1 NW 1011,7 10
08.12.2018 20:00:00 - - - - - - -
08.12.2018 19:00:00 - - - - - - -
08.12.2018 18:00:00 26,0 12,7 5 3 NE 1011,8 10
08.12.2018 17:00:00 - - - - - - -
08.12.2018 16:00:00 - - - - - - -
08.12.2018 15:00:00 26,8 9,7 9 5 N 1014,5 10
08.12.2018 14:00:00 - - - - - - -
08.12.2018 13:00:00 - - - - - - -
08.12.2018 12:00:00 24,8 9,9 13 7 N 1017,8 10
08.12.2018 11:00:00 - - - - - - -
08.12.2018 10:00:00 - - - - - - -
08.12.2018 09:00:00 20,2 6,2 15 8 W 1020,4 10
08.12.2018 08:00:00 - - - - - - -
08.12.2018 07:00:00 - - - - - - -
08.12.2018 06:00:00 16,7 7,4 8 4 NW 1020,0 10
08.12.2018 05:00:00 - - - - - - -
08.12.2018 04:00:00 - - - - - - -
08.12.2018 03:00:00 17,0 10,5 5 3 NW 1020,7 10
08.12.2018 02:00:00 - - - - - - -
08.12.2018 01:00:00 - - - - - - -
08.12.2018 00:00:00 18,6 11,4 8 4 N 1022,4 10
07.12.2018 23:00:00 - - - - - - -
07.12.2018 22:00:00 - - - - - - -
07.12.2018 21:00:00 19,0 11,6 0 0 N 1022,3 10
07.12.2018 20:00:00 - - - - - - -
07.12.2018 19:00:00 - - - - - - -
07.12.2018 18:00:00 22,2 10,0 15 8 N 1023,5 10
07.12.2018 17:00:00 - - - - - - -
07.12.2018 16:00:00 - - - - - - -
07.12.2018 15:00:00 21,8 11,1 11 6 N 1023,5 10
07.12.2018 14:00:00 - - - - - - -
07.12.2018 13:00:00 - - - - - - -
07.12.2018 12:00:00 20,2 11,0 9 5 N 1025,2 10
07.12.2018 11:00:00 - - - - - - -
07.12.2018 10:00:00 - - - - - - -
07.12.2018 09:00:00 17,6 7,1 8 4 N 1026,1 10
07.12.2018 08:00:00 - - - - - - -
07.12.2018 07:00:00 - - - - - - -
07.12.2018 06:00:00 11,3 7,2 8 4 SE 1025,4 10
07.12.2018 05:00:00 - - - - - - -
07.12.2018 04:00:00 - - - - - - -
07.12.2018 03:00:00 12,8 7,8 5 3 SE 1024,6 10
07.12.2018 02:00:00 - - - - - - -
07.12.2018 01:00:00 - - - - - - -
07.12.2018 00:00:00 14,1 7,7 15 8 E 1025,7 10
06.12.2018 23:00:00 - - - - - - -
06.12.2018 22:00:00 - - - - - - -
06.12.2018 21:00:00 16,7 10,6 5 3 NE 1024,2 10
06.12.2018 20:00:00 - - - - - - -
06.12.2018 19:00:00 - - - - - - -
06.12.2018 18:00:00 19,2 10,0 8 4 N 1023,1 10
06.12.2018 17:00:00 - - - - - - -
06.12.2018 16:00:00 - - - - - - -
06.12.2018 15:00:00 21,8 7,2 9 5 E 1023,8 10
06.12.2018 14:00:00 - - - - - - -
06.12.2018 13:00:00 - - - - - - -
06.12.2018 12:00:00 18,7 7,4 18 10 E 1025,2 10
06.12.2018 11:00:00 - - - - - - -
06.12.2018 10:00:00 - - - - - - -
06.12.2018 09:00:00 15,5 8,3 13 7 E 1025,0 10
06.12.2018 08:00:00 - - - - - - -
06.12.2018 07:00:00 - - - - - - -
06.12.2018 06:00:00 14,1 9,7 8 4 SE 1022,6 10
06.12.2018 05:00:00 - - - - - - -
06.12.2018 04:00:00 - - - - - - -
06.12.2018 03:00:00 15,5 10,4 8 4 SE 1020,9 10
06.12.2018 02:00:00 - - - - - - -
06.12.2018 01:00:00 - - - - - - -
06.12.2018 00:00:00 18,2 11,1 13 7 NE 1020,8 10
05.12.2018 23:00:00 - - - - - - -
05.12.2018 22:00:00 - - - - - - -
05.12.2018 21:00:00 19,9 14,5 9 5 NW 1018,7 10
05.12.2018 20:00:00 - - - - - - -
05.12.2018 19:00:00 - - - - - - -
05.12.2018 18:00:00 21,8 14,0 11 6 E 1016,0 10
05.12.2018 17:00:00 - - - - - - -
05.12.2018 16:00:00 - - - - - - -
05.12.2018 15:00:00 24,4 11,0 9 5 SE 1015,9 10
05.12.2018 14:00:00 - - - - - - -
05.12.2018 13:00:00 - - - - - - -
05.12.2018 12:00:00 23,0 12,2 5 3 S 1016,7 10
05.12.2018 11:00:00 - - - - - - -
05.12.2018 10:00:00 - - - - - - -
05.12.2018 09:00:00 19,6 12,0 13 7 SE 1015,7 10
05.12.2018 08:00:00 - - - - - - -
05.12.2018 07:00:00 - - - - - - -
05.12.2018 06:00:00 14,4 12,0 9 5 SE 1012,8 10
05.12.2018 05:00:00 - - - - - - -
05.12.2018 04:00:00 - - - - - - -
05.12.2018 03:00:00 15,3 11,4 4 2 SE 1011,6 10
05.12.2018 02:00:00 - - - - - - -
05.12.2018 01:00:00 - - - - - - -
05.12.2018 00:00:00 16,9 10,8 4 2 E 1011,0 10
04.12.2018 23:00:00 - - - - - - -
04.12.2018 22:00:00 - - - - - - -
04.12.2018 21:00:00 19,2 13,1 18 10 NE 1008,9 10
04.12.2018 20:00:00 - - - - - - -
04.12.2018 19:00:00 - - - - - - -
04.12.2018 18:00:00 21,2 14,5 8 4 NE 1006,8 10
04.12.2018 17:00:00 - - - - - - -
04.12.2018 16:00:00 - - - - - - -
04.12.2018 15:00:00 22,4 13,5 13 7 N 1006,5 10
04.12.2018 14:00:00 - - - - - - -
04.12.2018 13:00:00 - - - - - - -
04.12.2018 12:00:00 23,0 10,4 0 0 N 1007,2 10
04.12.2018 11:00:00 - - - - - - -
04.12.2018 10:00:00 - - - - - - -
04.12.2018 09:00:00 18,6 10,5 13 7 SE 1007,9 10
04.12.2018 08:00:00 - - - - - - -
04.12.2018 07:00:00 - - - - - - -

tt = temperature
td = dewpoint
ff = wind speed
dd = wind direction
ppp = reduced air pressure
vv = visibility

Next stations